STARLINK-33988 (63938 NORAD) Tracking and Keplerian Element Data

This shows tracking and keplerian element data for the satellite.

Feedback or suggestion? Click here.




ElementValue
Catalog63938
NameSTARLINK-33988
Epoch Orbit3462
Epoch Day354.06491564
Epoch Year2025
RAAN115.2924
Inclination70.0015
Eccentricity0.0003003
Argument of Perigee272.2346
Mean Anonmoly87.8469
Mean Motion14.98331235
Decay Rate1.142E-05
L11 63938U 25098N 25354.06491564 .00001142 00000+0 10352-3 0 9998
L22 63938 70.0015 115.2924 0003003 272.2346 87.8469 14.98331235 34626



Live tracking and technical data element details for STARLINK-33988 (NORAD 63938). STARLINK-33988 can be tracked NOW for your location showing map with azimuth and elevation plus other details from your city location.







IsCatalogInMostPopularTable: catalog: 63938, numindb: 7
Update: records affected: 1



GetName: 63938 STARLINK-33988

Hit Count: updated at: Tue, 21 Apr 2026 20:51:12 GMT